Погода в Кап-Кане

Доминиканская Республика     18°35′58″N   68°25′05″W
темп.,
°C
ветер,
м/с
пор.,
м/с
влажн.,
%
обл.,
%
осадки,
мм/ч
давл.,
гПа
погр.,
м
10 апреля, сб
сб1023:00+22всв3869100 0.0 1017303
02:00+21всв377187 0.0 1015225
05:00+20св3674100 0.0 1015200
08:00+24всв466298 0.0 10171060
11:00+27всв5449100 0.0 10171595
14:00+28всв5446100 0.0 10151545
17:00+26св55495 0.0 10141340
20:00+21св38725 0.0 1015213
11 апреля, вс
вс1123:00+21всв36757 0.0 1016186
02:00+21всв257675 0.0 1014184
05:00+21св257270 0.0 1013200
08:00+24всв356342 0.0 10151047
11:00+27в554513 0.0 10151456
14:00+28вюв543976 0.0 10131462
17:00+26вюв44515 0.0 10121076
20:00+21вюв237620 0.0 101479
12 апреля, пн
пн1223:00+20вюв1283100 0.0 101479
02:00+21вюв1283100 0.1 101475
05:00+20в1187100 0.1 101439
08:00+24юв247029 0.1 1015532
11:00+27ююв5356100 0.1 10151331
14:00+29ююв534772 0.1 10131368
17:00+26юв4455100 0.0 1012775
20:00+21юв228128 0.0 101345
13 апреля, вт
вт1323:00+21юв2285100 0.0 101457
02:00+21ююв11885 0.0 101347
05:00+20ююз11929 0.0 101350
08:00+24ю117810 0.0 1015273
11:00+30юв324927 0.0 10141349
14:00+31юв534999 0.0 10131438
17:00+28юв435816 0.0 1012960
20:00+23в238910 0.0 101467
14 апреля, ср
ср1423:00+22св229128 0.0 101555
02:00+22св238910 0.0 101465
05:00+21св23883 0.0 101369
08:00+25всв34690 0.0 1015606
11:00+29всв434997 0.0 10151287
14:00+31всв534598 0.0 10141599
17:00+28всв54560 0.0 1012957
20:00+23всв3681100 0.0 1014222